| time (UTC) | temp F | wind direction | speed MPH | gust MPH | rain 1hr in | rain 24hr in | rain mn in | humidity % | barometer mb |
| 20260507081404 | 49 | 312 | 0.0 | 5.0 | 0.08 | 0.22 | 0.13 | 90 | 1007.9 |
| 20260507080904 | 49 | 289 | 0.0 | 5.0 | 0.07 | 0.21 | 0.12 | 90 | 1008.0 |
| 20260507080405 | 49 | 315 | 0.0 | 6.0 | 0.07 | 0.21 | 0.12 | 90 | 1008.1 |
| 20260507075904 | 49 | 315 | 1.0 | 8.0 | 0.08 | 0.21 | 0.12 | 90 | 1008.3 |
| 20260507075404 | 49 | 271 | 3.0 | 8.0 | 0.07 | 0.20 | 0.11 | 90 | 1008.0 |
| 20260507074405 | 49 | 305 | 3.0 | 12.0 | 0.06 | 0.19 | 0.10 | 90 | 1008.0 |
| 20260507073904 | 49 | 293 | 6.0 | 10.0 | 0.05 | 0.18 | 0.09 | 90 | 1007.9 |
| 20260507073405 | 49 | 283 | 4.0 | 10.0 | 0.03 | 0.15 | 0.06 | 90 | 1008.2 |
| 20260507072904 | 49 | 285 | 1.0 | 9.0 | 0.03 | 0.15 | 0.06 | 90 | 1007.7 |
| 20260507071904 | 49 | 286 | 3.0 | 12.0 | 0.02 | 0.14 | 0.05 | 89 | 1007.9 |
| 20260507071404 | 50 | 306 | 6.0 | 12.0 | 0.02 | 0.14 | 0.05 | 89 | 1008.0 |
| 20260507070904 | 50 | 299 | 4.0 | 10.0 | 0.03 | 0.14 | 0.05 | 88 | 1007.7 |
| 20260507070404 | 50 | 293 | 5.0 | 12.0 | 0.03 | 0.14 | 0.05 | 88 | 1007.7 |
| 20260507065904 | 50 | 302 | 5.0 | 12.0 | 0.02 | 0.13 | 0.04 | 88 | 1007.7 |
| 20260507065404 | 50 | 309 | 5.0 | 12.0 | 0.02 | 0.13 | 0.04 | 88 | 1007.8 |
| 20260507064905 | 50 | 291 | 2.0 | 9.0 | 0.03 | 0.13 | 0.04 | 87 | 1007.8 |
| 20260507064404 | 50 | 260 | 2.0 | 12.0 | 0.03 | 0.13 | 0.04 | 87 | 1007.9 |
| 20260507062904 | 51 | 289 | 0.0 | 0.0 | 0.03 | 0.12 | 0.03 | 87 | 1007.7 |
| 20260507062404 | 51 | 286 | 0.0 | 0.0 | 0.03 | 0.12 | 0.03 | 86 | 1007.5 |
| 20260507061904 | 51 | 315 | 2.0 | 10.0 | 0.03 | 0.12 | 0.03 | 86 | 1008.0 |
| 20260507060904 | 51 | 303 | 0.0 | 3.0 | 0.02 | 0.11 | 0.02 | 85 | 1006.9 |
| 20260507060405 | 51 | 317 | 0.0 | 8.0 | 0.02 | 0.11 | 0.02 | 85 | 1007.6 |
| 20260507055905 | 51 | 318 | 4.0 | 9.0 | 0.02 | 0.11 | 0.02 | 84 | 1007.6 |
| 20260507055404 | 52 | 308 | 1.0 | 7.0 | 0.02 | 0.11 | 0.02 | 84 | 1007.5 |
| 20260507054904 | 52 | 332 | 3.0 | 8.0 | 0.01 | 0.10 | 0.01 | 83 | 1007.9 |
| 20260507052905 | 53 | 314 | 5.0 | 9.0 | 0.00 | 0.09 | 0.00 | 79 | 1006.9 |
| 20260507052405 | 53 | 308 | 5.0 | 12.0 | 0.00 | 0.09 | 0.00 | 78 | 1006.9 |
| 20260507051905 | 53 | 295 | 4.0 | 12.0 | 0.00 | 0.09 | 0.00 | 77 | 1007.0 |
| 20260507051404 | 54 | 270 | 1.0 | 10.0 | 0.00 | 0.09 | 0.00 | 77 | 1007.0 |
| 20260507050904 | 54 | 299 | 5.0 | 10.0 | 0.00 | 0.09 | 0.00 | 77 | 1007.3 |
| 20260507045904 | 54 | 305 | 0.0 | 3.0 | 0.00 | 0.09 | 0.00 | 77 | 1007.4 |
| 20260507045406 | 54 | 318 | 4.0 | 8.0 | 0.00 | 0.09 | 0.00 | 77 | 1007.3 |
| 20260507044904 | 54 | 325 | 4.0 | 8.0 | 0.00 | 0.09 | 0.00 | 77 | 1007.3 |
| 20260507044405 | 54 | 305 | 2.0 | 9.0 | 0.00 | 0.09 | 0.00 | 76 | 1007.1 |
| 20260507043905 | 54 | 318 | 2.0 | 10.0 | 0.00 | 0.09 | 0.00 | 76 | 1007.3 |
| 20260507043404 | 54 | 298 | 5.0 | 10.0 | 0.00 | 0.09 | 0.00 | 77 | 1007.3 |
| 20260507042905 | 55 | 322 | 5.0 | 9.0 | 0.00 | 0.09 | 0.00 | 77 | 1007.3 |
| 20260507042404 | 55 | 341 | 3.0 | 8.0 | 0.00 | 0.09 | 0.00 | 78 | 1007.4 |
| 20260507041904 | 55 | 303 | 1.0 | 3.0 | 0.00 | 0.09 | 0.00 | 78 | 1007.4 |
| 20260507041404 | 55 | 329 | 2.0 | 9.0 | 0.00 | 0.09 | 0.00 | 78 | 1007.3 |
| 20260507040905 | 55 | 312 | 3.0 | 10.0 | 0.00 | 0.09 | 0.00 | 78 | 1007.4 |
| 20260507040405 | 55 | 293 | 1.0 | 9.0 | 0.00 | 0.09 | 0.00 | 78 | 1007.4 |
| 20260507035905 | 55 | 280 | 3.0 | 9.0 | 0.00 | 0.09 | 0.09 | 78 | 1007.3 |
| 20260507035404 | 55 | 281 | 2.0 | 10.0 | 0.00 | 0.09 | 0.09 | 78 | 1007.4 |
| 20260507034905 | 55 | 324 | 5.0 | 10.0 | 0.00 | 0.09 | 0.09 | 78 | 1007.4 |
| 20260507034404 | 55 | 289 | 3.0 | 12.0 | 0.00 | 0.09 | 0.09 | 78 | 1007.4 |
| 20260507033904 | 55 | 303 | 2.0 | 8.0 | 0.00 | 0.09 | 0.09 | 78 | 1007.3 |
| 20260507033405 | 55 | 294 | 3.0 | 9.0 | 0.00 | 0.09 | 0.09 | 78 | 1007.1 |
| 20260507032904 | 55 | 298 | 2.0 | 8.0 | 0.00 | 0.09 | 0.09 | 78 | 1007.3 |
| 20260507032405 | 55 | 316 | 2.0 | 13.0 | 0.00 | 0.09 | 0.09 | 78 | 1007.2 |
| 20260507031905 | 55 | 304 | 4.0 | 9.0 | 0.00 | 0.09 | 0.09 | 78 | 1007.1 |
| 20260507031406 | 56 | 304 | 5.0 | 12.0 | 0.00 | 0.09 | 0.09 | 78 | 1006.9 |
| 20260507030905 | 56 | 302 | 1.0 | 12.0 | 0.00 | 0.09 | 0.09 | 78 | 1007.0 |
| 20260507030405 | 56 | 283 | 1.0 | 13.0 | 0.00 | 0.09 | 0.09 | 78 | 1007.0 |
| 20260507025906 | 56 | 313 | 4.0 | 12.0 | 0.01 | 0.09 | 0.09 | 79 | 1007.0 |
| 20260507024905 | 56 | 307 | 4.0 | 12.0 | 0.02 | 0.09 | 0.09 | 81 | 1007.1 |
| 20260507023905 | 56 | 304 | 6.0 | 13.0 | 0.03 | 0.09 | 0.09 | 82 | 1007.2 |
| 20260507023404 | 56 | 314 | 6.0 | 15.0 | 0.03 | 0.09 | 0.09 | 83 | 1007.2 |
| 20260507022904 | 57 | 317 | 6.0 | 12.0 | 0.03 | 0.09 | 0.09 | 85 | 1007.4 |
| 20260507022404 | 58 | 318 | 6.0 | 10.0 | 0.03 | 0.09 | 0.09 | 87 | 1007.4 |
| 20260507021904 | 58 | 310 | 3.0 | 9.0 | 0.03 | 0.09 | 0.09 | 87 | 1007.2 |
| 20260507021404 | 59 | 313 | 5.0 | 15.0 | 0.03 | 0.09 | 0.09 | 87 | 1007.5 |
| 20260507020904 | 59 | 283 | 3.0 | 9.0 | 0.03 | 0.09 | 0.09 | 87 | 1007.2 |
| 20260507020404 | 59 | 310 | 3.0 | 9.0 | 0.03 | 0.09 | 0.09 | 87 | 1006.8 |
| 20260507015904 | 59 | 321 | 6.0 | 12.0 | 0.02 | 0.08 | 0.08 | 86 | 1006.8 |
| 20260507014904 | 61 | 271 | 0.0 | 6.0 | 0.01 | 0.07 | 0.07 | 85 | 1006.8 |
| 20260507013405 | 64 | 256 | 6.0 | 12.0 | 0.00 | 0.06 | 0.06 | 83 | 1006.2 |
| 20260507012905 | 65 | 181 | 6.0 | 13.0 | 0.00 | 0.06 | 0.06 | 82 | 1006.0 |
| 20260507012404 | 65 | 221 | 5.0 | 13.0 | 0.00 | 0.06 | 0.06 | 82 | 1006.0 |
| 20260507011904 | 65 | 173 | 4.0 | 12.0 | 0.00 | 0.06 | 0.06 | 81 | 1006.0 |
| 20260507011405 | 65 | 207 | 3.0 | 9.0 | 0.00 | 0.06 | 0.06 | 81 | 1006.0 |
| 20260507010904 | 65 | 194 | 3.0 | 7.0 | 0.00 | 0.06 | 0.06 | 81 | 1005.9 |
| 20260507010404 | 65 | 203 | 2.0 | 7.0 | 0.00 | 0.06 | 0.06 | 81 | 1006.0 |
| 20260507005904 | 65 | 200 | 2.0 | 8.0 | 0.00 | 0.06 | 0.06 | 81 | 1006.0 |
| 20260507004904 | 65 | 219 | 3.0 | 7.0 | 0.00 | 0.06 | 0.06 | 82 | 1005.9 |
| 20260507004404 | 65 | 198 | 1.0 | 6.0 | 0.00 | 0.06 | 0.06 | 82 | 1005.9 |
| 20260507003904 | 65 | 210 | 3.0 | 7.0 | 0.00 | 0.06 | 0.06 | 82 | 1005.8 |
| 20260507003404 | 64 | 225 | 3.0 | 8.0 | 0.00 | 0.06 | 0.06 | 82 | 1005.8 |
| 20260507001404 | 64 | 207 | 5.0 | 10.0 | 0.00 | 0.06 | 0.06 | 82 | 1005.8 |
| 20260507000405 | 64 | 186 | 4.0 | 9.0 | 0.00 | 0.06 | 0.06 | 82 | 1005.7 |
| 20260506235905 | 64 | 201 | 4.0 | 10.0 | 0.00 | 0.06 | 0.06 | 83 | 1005.7 |
| 20260506235405 | 64 | 217 | 5.0 | 9.0 | 0.00 | 0.06 | 0.06 | 82 | 1005.7 |
| 20260506234904 | 64 | 220 | 4.0 | 10.0 | 0.00 | 0.06 | 0.06 | 82 | 1005.7 |
| 20260506234404 | 64 | 221 | 5.0 | 8.0 | 0.00 | 0.06 | 0.06 | 82 | 1005.6 |
| 20260506233404 | 64 | 236 | 5.0 | 12.0 | 0.00 | 0.06 | 0.06 | 82 | 1005.4 |
| 20260506232904 | 64 | 235 | 4.0 | 12.0 | 0.00 | 0.06 | 0.06 | 82 | 1005.5 |
| 20260506232405 | 65 | 195 | 5.0 | 12.0 | 0.00 | 0.06 | 0.06 | 82 | 1005.7 |
| 20260506231905 | 64 | 222 | 4.0 | 12.0 | 0.00 | 0.06 | 0.06 | 82 | 1005.7 |
| 20260506231405 | 64 | 219 | 7.0 | 12.0 | 0.00 | 0.06 | 0.06 | 82 | 1005.6 |
| 20260506230405 | 64 | 235 | 7.0 | 12.0 | 0.00 | 0.06 | 0.06 | 82 | 1005.6 |
| 20260506225905 | 64 | 223 | 6.0 | 12.0 | 0.00 | 0.06 | 0.06 | 83 | 1005.5 |
| 20260506225405 | 64 | 211 | 6.0 | 12.0 | 0.00 | 0.06 | 0.06 | 82 | 1005.5 |
| 20260506224905 | 64 | 216 | 6.0 | 12.0 | 0.00 | 0.06 | 0.06 | 83 | 1005.4 |
| 20260506224404 | 64 | 247 | 5.0 | 13.0 | 0.00 | 0.06 | 0.06 | 83 | 1005.4 |
| 20260506223904 | 64 | 231 | 5.0 | 13.0 | 0.00 | 0.06 | 0.06 | 83 | 1005.4 |
| 20260506222904 | 64 | 226 | 7.0 | 12.0 | 0.00 | 0.06 | 0.06 | 83 | 1005.4 |
| 20260506222405 | 64 | 217 | 7.0 | 16.0 | 0.00 | 0.06 | 0.06 | 83 | 1005.4 |
| 20260506221905 | 64 | 228 | 6.0 | 13.0 | 0.00 | 0.06 | 0.06 | 83 | 1005.3 |
| 20260506220904 | 64 | 198 | 6.0 | 15.0 | 0.00 | 0.06 | 0.06 | 83 | 1005.2 |
| 20260506220405 | 64 | 218 | 8.0 | 13.0 | 0.00 | 0.06 | 0.06 | 84 | 1005.2 |
| 20260506215904 | 64 | 223 | 8.0 | 15.0 | 0.00 | 0.06 | 0.06 | 84 | 1005.2 |
| 20260506214405 | 64 | 217 | 10.0 | 18.0 | 0.00 | 0.06 | 0.06 | 84 | 1005.1 |
| 20260506213905 | 64 | 214 | 7.0 | 14.0 | 0.00 | 0.06 | 0.06 | 84 | 1005.2 |
| 20260506212906 | 64 | 225 | 5.0 | 14.0 | 0.00 | 0.06 | 0.06 | 84 | 1004.9 |
| 20260506212404 | 63 | 243 | 8.0 | 16.0 | 0.00 | 0.06 | 0.06 | 84 | 1005.0 |
| 20260506211905 | 63 | 216 | 5.0 | 20.0 | 0.00 | 0.06 | 0.06 | 85 | 1004.9 |
| 20260506211405 | 63 | 231 | 9.0 | 20.0 | 0.00 | 0.06 | 0.06 | 85 | 1004.9 |
| 20260506210905 | 63 | 221 | 7.0 | 16.0 | 0.00 | 0.06 | 0.06 | 85 | 1004.9 |
| 20260506210405 | 63 | 205 | 5.0 | 12.0 | 0.01 | 0.06 | 0.06 | 86 | 1004.9 |
| 20260506205905 | 63 | 231 | 8.0 | 15.0 | 0.01 | 0.06 | 0.06 | 86 | 1004.8 |
| 20260506205404 | 63 | 202 | 5.0 | 9.0 | 0.01 | 0.06 | 0.06 | 86 | 1004.8 |
| 20260506204405 | 63 | 206 | 9.0 | 14.0 | 0.01 | 0.06 | 0.06 | 86 | 1004.7 |
| 20260506203905 | 63 | 196 | 6.0 | 13.0 | 0.01 | 0.06 | 0.06 | 87 | 1004.7 |
| 20260506203403 | 62 | 218 | 7.0 | 15.0 | 0.01 | 0.06 | 0.06 | 87 | 1004.7 |
| 20260506202904 | 62 | 205 | 10.0 | 16.0 | 0.01 | 0.06 | 0.06 | 87 | 1004.9 |
| 20260506202404 | 62 | 183 | 7.0 | 13.0 | 0.01 | 0.06 | 0.06 | 87 | 1005.0 |
| 20260506201904 | 62 | 201 | 6.0 | 15.0 | 0.01 | 0.06 | 0.06 | 88 | 1005.0 |
| 20260506201404 | 62 | 206 | 6.0 | 12.0 | 0.01 | 0.06 | 0.06 | 88 | 1005.0 |
| 20260506200904 | 62 | 209 | 4.0 | 15.0 | 0.01 | 0.06 | 0.06 | 88 | 1005.1 |
| 20260506200404 | 62 | 229 | 6.0 | 10.0 | 0.00 | 0.05 | 0.05 | 88 | 1005.1 |
| 20260506195904 | 62 | 208 | 7.0 | 12.0 | 0.00 | 0.05 | 0.05 | 88 | 1005.2 |
| 20260506195403 | 62 | 227 | 7.0 | 14.0 | 0.00 | 0.05 | 0.05 | 87 | 1005.4 |
| 20260506194904 | 62 | 225 | 7.0 | 13.0 | 0.01 | 0.05 | 0.05 | 86 | 1005.4 |
| 20260506194403 | 62 | 203 | 7.0 | 15.0 | 0.01 | 0.05 | 0.05 | 86 | 1005.4 |
| 20260506192905 | 63 | 226 | 10.0 | 16.0 | 0.01 | 0.05 | 0.05 | 84 | 1005.5 |
| 20260506192404 | 63 | 234 | 9.0 | 17.0 | 0.01 | 0.05 | 0.05 | 84 | 1005.6 |
| 20260506191904 | 63 | 218 | 9.0 | 18.0 | 0.01 | 0.05 | 0.05 | 84 | 1005.4 |
| 20260506191405 | 63 | 210 | 9.0 | 18.0 | 0.01 | 0.05 | 0.05 | 84 | 1005.5 |
| 20260506190904 | 63 | 202 | 8.0 | 15.0 | 0.01 | 0.05 | 0.05 | 85 | 1005.4 |
| 20260506190404 | 63 | 197 | 9.0 | 18.0 | 0.01 | 0.05 | 0.05 | 85 | 1005.4 |
| 20260506185904 | 63 | 185 | 6.0 | 13.0 | 0.01 | 0.05 | 0.05 | 85 | 1005.5 |
| 20260506185406 | 63 | 186 | 3.0 | 10.0 | 0.01 | 0.05 | 0.05 | 84 | 1005.6 |
| 20260506184404 | 64 | 196 | 5.0 | 7.0 | 0.00 | 0.04 | 0.04 | 83 | 1005.5 |
| 20260506183904 | 64 | 239 | 5.0 | 9.0 | 0.00 | 0.04 | 0.04 | 82 | 1005.5 |
| 20260506183404 | 64 | 198 | 4.0 | 10.0 | 0.01 | 0.04 | 0.04 | 81 | 1005.5 |
| 20260506182905 | 65 | 250 | 4.0 | 8.0 | 0.01 | 0.04 | 0.04 | 81 | 1005.6 |
| 20260506182405 | 65 | 215 | 4.0 | 10.0 | 0.01 | 0.04 | 0.04 | 80 | 1005.7 |
| 20260506181904 | 64 | 201 | 5.0 | 13.0 | 0.02 | 0.04 | 0.04 | 80 | 1005.8 |
| 20260506181404 | 64 | 202 | 7.0 | 13.0 | 0.02 | 0.04 | 0.04 | 80 | 1005.9 |
| 20260506180404 | 65 | 228 | 7.0 | 15.0 | 0.02 | 0.04 | 0.04 | 80 | 1006.0 |
| 20260506175904 | 65 | 208 | 6.0 | 16.0 | 0.02 | 0.04 | 0.04 | 80 | 1006.1 |
| 20260506175404 | 65 | 214 | 3.0 | 12.0 | 0.02 | 0.04 | 0.04 | 82 | 1006.1 |
| 20260506174904 | 64 | 203 | 5.0 | 12.0 | 0.03 | 0.04 | 0.04 | 82 | 1006.1 |
| 20260506174404 | 64 | 213 | 3.0 | 8.0 | 0.03 | 0.04 | 0.04 | 82 | 1006.1 |
| 20260506173404 | 64 | 197 | 6.0 | 15.0 | 0.02 | 0.03 | 0.03 | 82 | 1006.0 |
| 20260506172904 | 64 | 201 | 6.0 | 12.0 | 0.03 | 0.03 | 0.03 | 82 | 1005.9 |
| 20260506172405 | 64 | 199 | 5.0 | 12.0 | 0.03 | 0.03 | 0.03 | 81 | 1005.8 |
| 20260506171905 | 64 | 190 | 5.0 | 15.0 | 0.02 | 0.02 | 0.02 | 81 | 1005.9 |
| 20260506171404 | 64 | 168 | 3.0 | 12.0 | 0.02 | 0.02 | 0.02 | 81 | 1006.1 |
| 20260506170904 | 64 | 200 | 3.0 | 12.0 | 0.02 | 0.02 | 0.02 | 80 | 1006.4 |
| 20260506170404 | 64 | 183 | 7.0 | 15.0 | 0.02 | 0.02 | 0.02 | 80 | 1006.7 |
| 20260506165905 | 64 | 197 | 4.0 | 12.0 | 0.02 | 0.02 | 0.02 | 80 | 1006.8 |
| 20260506165404 | 64 | 209 | 11.0 | 17.0 | 0.02 | 0.02 | 0.02 | 79 | 1006.9 |
| 20260506164905 | 64 | 216 | 9.0 | 14.0 | 0.01 | 0.01 | 0.01 | 78 | 1006.9 |
| 20260506164404 | 64 | 201 | 7.0 | 13.0 | 0.01 | 0.01 | 0.01 | 77 | 1006.8 |
| 20260506163904 | 65 | 209 | 9.0 | 15.0 | 0.01 | 0.01 | 0.01 | 76 | 1006.9 |
| 20260506162404 | 66 | 199 | 2.0 | 12.0 | 0.00 | 0.00 | 0.00 | 73 | 1007.1 |
| 20260506161905 | 66 | 211 | 9.0 | 16.0 | 0.00 | 0.00 | 0.00 | 71 | 1007.2 |
| 20260506161405 | 67 | 195 | 8.0 | 18.0 | 0.00 | 0.00 | 0.00 | 69 | 1007.3 |
| 20260506160904 | 67 | 209 | 11.0 | 20.0 | 0.00 | 0.00 | 0.00 | 66 | 1007.6 |
| 20260506160404 | 68 | 225 | 11.0 | 22.0 | 0.00 | 0.00 | 0.00 | 65 | 1007.6 |
| 20260506155904 | 68 | 204 | 13.0 | 23.0 | 0.00 | 0.00 | 0.00 | 65 | 1007.3 |
| 20260506155406 | 69 | 207 | 13.0 | 23.0 | 0.00 | 0.00 | 0.00 | 65 | 1007.3 |
| 20260506154904 | 69 | 194 | 10.0 | 18.0 | 0.00 | 0.00 | 0.00 | 65 | 1007.2 |
| 20260506154405 | 69 | 193 | 7.0 | 15.0 | 0.00 | 0.00 | 0.00 | 66 | 1007.2 |
| 20260506153905 | 69 | 209 | 9.0 | 17.0 | 0.00 | 0.00 | 0.00 | 67 | 1007.3 |
| 20260506152906 | 68 | 201 | 8.0 | 16.0 | 0.00 | 0.00 | 0.00 | 67 | 1007.3 |
| 20260506152404 | 69 | 217 | 9.0 | 20.0 | 0.00 | 0.00 | 0.00 | 64 | 1007.3 |
| 20260506150905 | 70 | 207 | 5.0 | 14.0 | 0.00 | 0.00 | 0.00 | 63 | 1007.7 |
| 20260506150405 | 70 | 209 | 10.0 | 17.0 | 0.00 | 0.00 | 0.00 | 62 | 1007.7 |
| 20260506145904 | 70 | 219 | 13.0 | 22.0 | 0.00 | 0.00 | 0.00 | 62 | 1007.5 |
| 20260506144904 | 70 | 193 | 9.0 | 29.0 | 0.00 | 0.00 | 0.00 | 63 | 1007.5 |
| 20260506144406 | 70 | 215 | 9.0 | 20.0 | 0.00 | 0.00 | 0.00 | 63 | 1007.7 |
| 20260506143905 | 70 | 234 | 10.0 | 17.0 | 0.00 | 0.00 | 0.00 | 63 | 1007.5 |
| 20260506143404 | 69 | 209 | 10.0 | 20.0 | 0.00 | 0.00 | 0.00 | 64 | 1007.4 |
| 20260506142904 | 69 | 213 | 11.0 | 18.0 | 0.00 | 0.00 | 0.00 | 65 | 1007.6 |
| 20260506142403 | 68 | 213 | 10.0 | 20.0 | 0.00 | 0.00 | 0.00 | 65 | 1007.6 |
| 20260506141905 | 68 | 229 | 13.0 | 24.0 | 0.00 | 0.00 | 0.00 | 64 | 1007.4 |
| 20260506141405 | 68 | 216 | 11.0 | 20.0 | 0.00 | 0.00 | 0.00 | 65 | 1007.4 |
| 20260506140904 | 69 | 216 | 12.0 | 20.0 | 0.00 | 0.00 | 0.00 | 64 | 1007.5 |
| 20260506140404 | 69 | 201 | 10.0 | 21.0 | 0.00 | 0.00 | 0.00 | 65 | 1007.6 |
| 20260506135904 | 68 | 203 | 12.0 | 20.0 | 0.00 | 0.00 | 0.00 | 65 | 1007.5 |
| 20260506135404 | 68 | 197 | 13.0 | 21.0 | 0.00 | 0.00 | 0.00 | 65 | 1007.7 |
| 20260506134905 | 68 | 222 | 10.0 | 18.0 | 0.00 | 0.00 | 0.00 | 65 | 1007.6 |
| 20260506134404 | 68 | 198 | 14.0 | 23.0 | 0.00 | 0.00 | 0.00 | 65 | 1007.7 |
| 20260506133905 | 68 | 191 | 13.0 | 20.0 | 0.00 | 0.00 | 0.00 | 65 | 1007.6 |
| 20260506132904 | 68 | 209 | 6.0 | 15.0 | 0.00 | 0.00 | 0.00 | 67 | 1007.6 |
| 20260506131904 | 67 | 215 | 9.0 | 20.0 | 0.00 | 0.00 | 0.00 | 67 | 1007.8 |
| 20260506131404 | 67 | 199 | 7.0 | 15.0 | 0.00 | 0.00 | 0.00 | 68 | 1007.7 |
| 20260506130404 | 67 | 200 | 10.0 | 15.0 | 0.00 | 0.00 | 0.00 | 68 | 1007.5 |
| 20260506125904 | 67 | 193 | 6.0 | 16.0 | 0.00 | 0.00 | 0.00 | 68 | 1007.4 |
| 20260506125404 | 67 | 225 | 8.0 | 17.0 | 0.00 | 0.00 | 0.00 | 68 | 1007.4 |
| 20260506124904 | 67 | 208 | 12.0 | 21.0 | 0.00 | 0.00 | 0.00 | 68 | 1007.5 |
| 20260506124405 | 67 | 213 | 9.0 | 16.0 | 0.00 | 0.00 | 0.00 | 68 | 1007.4 |
| 20260506123904 | 66 | 215 | 10.0 | 20.0 | 0.00 | 0.00 | 0.00 | 69 | 1007.4 |
| 20260506123404 | 66 | 218 | 12.0 | 16.0 | 0.00 | 0.00 | 0.00 | 69 | 1007.6 |
| 20260506122904 | 66 | 220 | 6.0 | 16.0 | 0.00 | 0.00 | 0.00 | 69 | 1007.6 |
| 20260506122405 | 66 | 199 | 10.0 | 21.0 | 0.00 | 0.00 | 0.00 | 69 | 1007.7 |
| 20260506121904 | 66 | 207 | 9.0 | 21.0 | 0.00 | 0.00 | 0.00 | 69 | 1007.5 |
| 20260506120904 | 66 | 194 | 8.0 | 15.0 | 0.00 | 0.00 | 0.00 | 69 | 1007.9 |
| 20260506120404 | 66 | 219 | 7.0 | 13.0 | 0.00 | 0.00 | 0.00 | 69 | 1007.9 |
| 20260506115904 | 66 | 206 | 8.0 | 15.0 | 0.00 | 0.00 | 0.00 | 70 | 1007.9 |
| 20260506115404 | 66 | 208 | 9.0 | 17.0 | 0.00 | 0.00 | 0.00 | 70 | 1008.0 |
| 20260506114905 | 66 | 198 | 11.0 | 18.0 | 0.00 | 0.00 | 0.00 | 70 | 1008.0 |
| 20260506113904 | 66 | 201 | 9.0 | 15.0 | 0.00 | 0.00 | 0.00 | 70 | 1007.9 |
| 20260506113404 | 66 | 210 | 9.0 | 15.0 | 0.00 | 0.00 | 0.00 | 71 | 1007.9 |
| 20260506111904 | 65 | 226 | 7.0 | 16.0 | 0.00 | 0.00 | 0.00 | 72 | 1007.9 |
| 20260506111405 | 65 | 219 | 8.0 | 14.0 | 0.00 | 0.00 | 0.00 | 72 | 1007.8 |
| 20260506110904 | 65 | 196 | 6.0 | 15.0 | 0.00 | 0.00 | 0.00 | 73 | 1007.8 |
| 20260506110405 | 64 | 200 | 7.0 | 16.0 | 0.00 | 0.00 | 0.00 | 74 | 1007.8 |
| 20260506105904 | 64 | 160 | 6.0 | 15.0 | 0.00 | 0.00 | 0.00 | 74 | 1007.7 |
| 20260506105405 | 64 | 194 | 8.0 | 17.0 | 0.00 | 0.00 | 0.00 | 74 | 1007.8 |
| 20260506104905 | 64 | 182 | 8.0 | 13.0 | 0.00 | 0.00 | 0.00 | 75 | 1007.8 |
| 20260506103905 | 64 | 214 | 5.0 | 12.0 | 0.00 | 0.00 | 0.00 | 75 | 1007.8 |
| 20260506102905 | 63 | 188 | 5.0 | 12.0 | 0.00 | 0.00 | 0.00 | 75 | 1007.8 |
| 20260506102404 | 63 | 191 | 4.0 | 12.0 | 0.00 | 0.00 | 0.00 | 76 | 1007.7 |
| 20260506101905 | 63 | 215 | 6.0 | 12.0 | 0.00 | 0.00 | 0.00 | 76 | 1007.6 |
| 20260506101405 | 63 | 186 | 5.0 | 10.0 | 0.00 | 0.00 | 0.00 | 76 | 1007.6 |
| 20260506100904 | 63 | 201 | 6.0 | 12.0 | 0.00 | 0.00 | 0.00 | 76 | 1007.6 |
| 20260506100406 | 63 | 176 | 5.0 | 12.0 | 0.00 | 0.00 | 0.00 | 76 | 1007.6 |
| 20260506095405 | 63 | 188 | 5.0 | 14.0 | 0.00 | 0.00 | 0.00 | 75 | 1007.6 |
| 20260506094905 | 63 | 163 | 6.0 | 14.0 | 0.00 | 0.00 | 0.00 | 76 | 1007.5 |
| 20260506094405 | 63 | 178 | 7.0 | 15.0 | 0.00 | 0.00 | 0.00 | 76 | 1007.5 |
| 20260506093905 | 63 | 173 | 7.0 | 13.0 | 0.00 | 0.00 | 0.00 | 76 | 1007.5 |
| 20260506093404 | 63 | 212 | 6.0 | 12.0 | 0.00 | 0.00 | 0.00 | 76 | 1007.5 |
| 20260506092905 | 63 | 177 | 5.0 | 12.0 | 0.00 | 0.00 | 0.00 | 76 | 1007.6 |
| 20260506092405 | 63 | 191 | 5.0 | 12.0 | 0.00 | 0.00 | 0.00 | 76 | 1007.6 |
| 20260506091904 | 63 | 185 | 7.0 | 13.0 | 0.00 | 0.00 | 0.00 | 76 | 1007.7 |
| 20260506091404 | 63 | 178 | 6.0 | 13.0 | 0.00 | 0.00 | 0.00 | 76 | 1007.6 |
| 20260506090905 | 63 | 182 | 5.0 | 12.0 | 0.00 | 0.00 | 0.00 | 76 | 1007.7 |
| 20260506085905 | 63 | 179 | 9.0 | 15.0 | 0.00 | 0.00 | 0.00 | 76 | 1007.7 |
| 20260506085405 | 63 | 168 | 6.0 | 12.0 | 0.00 | 0.00 | 0.00 | 76 | 1007.8 |
| 20260506084404 | 63 | 179 | 8.0 | 13.0 | 0.00 | 0.00 | 0.00 | 76 | 1007.8 |
| 20260506083905 | 63 | 180 | 5.0 | 13.0 | 0.00 | 0.00 | 0.00 | 76 | 1007.7 |
| 20260506083404 | 63 | 185 | 5.0 | 12.0 | 0.00 | 0.00 | 0.00 | 76 | 1007.7 |
| 20260506082904 | 63 | 179 | 4.0 | 13.0 | 0.00 | 0.00 | 0.00 | 75 | 1007.8 |